User: anonymous   Login
Location: Alfortville
(48.8058°N, 2.4204°E)
Time: 00:16:34
(UTC+00:00)
Language:

Max Valier Satellite - Orbit

View from above orbital plane
View from above orbital plane
View from above satellite
View from above satellite

Ground track
Ground track

The orbit data is extracted from the following two-line orbital elements,

1 42778U 17036P   24176.75567258  .01014145  60464-3  11539-2 0  9990
2 42778  97.0697 215.6407 0006005 205.3926 154.7064 16.09279222390808
Epoch (UTC): 24 June 2024 18:08:10
Eccentricity: 0.0006005
inclination: 97.0697°
perigee height: 245 km
apogee height: 253 km
right ascension of ascending node: 215.6407°
argument of perigee: 205.3926°
revolutions per day: 16.09279222
mean anomaly at epoch: 154.7064°
orbit number at epoch: 39080

The dashed part of the orbit path shows where the satellite is in the earth's shadow,  

DLR